RH
87 87 93 89 87 89 88 94 86 66 58 74 76 90 100 79 58 48 56 66 47 27 25 30 34 53 52 49 37 30 42 40 39 34 34 28 28 26 25 22 20 20 21 21 22
96 94 99 98 87 88 91 86 79 74 72 82 80 95 100 62 47 63 90 76 43 32 28 35 42 48 45 45 32 31 49 37 38 38 32 29 28 26 22 23 20 18 20 22 24
100 95 89 94 99 98 85 85 88 90 97 82 72 90 81 72 45 98 87 72 44 40 34 38 40 40 36 36 28 34 42 39 44 36 33 30 28 26 26 23 19 19 18 19 20
94 97 93 84 94 93 78 86 94 92 85 71 86 99 77 66 93 93 59 38 48 41 36 37 32 32 38 35 32 38 36 37 41 31 29 32 31 27 27 18 19 20 19 19 18
73 95 88 91 68 73 77 54 57 82 75 84 94 100 83 84 100 92 47 45 42 38 35 34 31 31 40 34 27 37 37 37 36 33 29 32 32 32 26 15 16 17 19 20 19
80 80 85 75 74 96 90 97 95 86 88 85 94 91 79 95 99 62 47 42 39 34 32 31 30 30 33 34 32 36 37 36 34 33 36 36 36 38 21 21 22 22 23 24 23
81 81 94 94 92 99 90 83 85 80 76 92 96 79 68 95 76 62 46 43 38 34 31 31 32 31 30 40 35 33 36 38 38 36 42 42 34 48 20 24 26 27 27 25 24
78 80 81 88 92 92 90 93 91 80 78 73 78 66 97 72 62 57 53 48 40 38 32 33 33 31 37 35 35 38 41 42 42 43 44 35 28 25 30 31 29 26 26 29 30
76 73 72 79 85 92 92 86 98 87 93 74 74 72 97 71 58 49 48 45 39 36 33 34 30 38 39 49 55 48 65 42 46 46 52 44 36 29 29 29 29 32 34 37 46
71 67 65 60 64 74 82 83 90 89 94 86 86 81 97 90 63 60 45 33 31 30 28 30 41 55 57 66 51 48 41 44 41 44 45 51 60 48 31 33 33 46 60 60 58
67 66 64 65 64 67 68 74 82 90 93 100 96 97 95 77 59 56 51 50 48 43 57 54 75 78 54 48 44 40 36 36 40 42 48 54 56 50 44 40 49 65 67 61 54
57 58 59 55 64 61 63 85 88 93 89 86 85 79 74 66 53 50 49 49 45 58 53 69 74 53 47 43 41 40 38 51 44 48 53 60 64 51 49 51 62 71 68 59 54
49 52 54 59 54 45 60 69 76 76 85 76 78 76 67 52 53 50 44 43 53 64 64 69 57 44 43 46 48 58 52 55 58 62 54 63 54 52 65 76 74 73 67 60 64
52 52 53 52 53 49 54 62 77 75 88 72 68 59 55 57 41 44 46 46 46 60 59 61 48 47 47 57 53 60 58 55 59 77 76 63 76 67 55 75 74 75 67 67 67
48 45 42 50 55 52 57 54 62 82 90 58 63 48 48 54 45 33 43 39 53 50 50 54 51 60 62 56 51 63 56 57 61 75 86 75 95 76 71 65 73 73 65 65 63
52 41 43 46 52 56 50 61 68 78 91 74 54 46 42 40 43 41 43 41 46 52 55 55 48 50 51 46 45 49 63 69 70 78 93 73 85 83 80 69 71 73 64 60 62
49 40 38 40 44 46 57 73 78 92 57 55 56 43 44 50 50 52 53 58 73 69 72 66 58 49 48 60 57 64 74 92 88 92 91 73 90 79 59 74 69 66 58 58 66
42 53 56 51 52 56 66 61 75 64 68 46 49 51 54 52 50 53 58 71 63 62 82 85 76 61 56 62 70 57 65 90 88 95 90 74 93 75 65 67 65 61 60 64 64
40 38 51 63 61 57 48 86 70 68 50 54 53 54 58 50 51 55 58 65 65 61 73 74 78 59 57 58 60 71 88 76 86 89 98 90 75 62 77 80 78 75 70 64 59
31 43 49 58 62 44 76 83 71 52 50 54 53 47 56 52 57 55 60 55 65 60 56 65 74 60 63 62 74 76 81 86 92 94 97 88 86 80 83 85 80 83 72 61 60
44 42 38 49 58 39 90 77 64 59 61 67 69 55 57 59 64 67 64 58 58 62 58 56 73 71 71 84 86 90 86 89 90 92 93 97 84 73 69 59 67 71 60 60 60
40 47 40 52 57 80 92 68 60 61 60 67 62 57 58 56 60 63 64 58 55 60 73 61 71 88 78 59 67 76 78 85 91 87 94 95 87 57 70 61 60 58 55 58 59
33 45 44 50 80 83 69 66 63 66 67 64 63 53 50 60 69 59 60 59 58 67 70 68 85 95 79 66 66 76 82 81 80 83 82 98 84 60 68 68 58 62 57 59 56
37 69 48 50 60 70 69 66 68 62 61 58 59 54 56 60 57 62 63 66 60 64 65 64 84 80 80 67 71 79 74 83 83 90 83 84 75 56 68 68 53 51 47 51 56
43 64 59 83 61 62 63 68 68 71 63 57 60 62 64 64 62 68 56 69 67 65 72 76 93 88 84 79 77 76 75 73 92 77 87 65 73 52 53 56 48 41 39 43 47
36 54 53 58 58 57 63 69 67 58 68 68 68 59 65 65 53 58 53 65 72 83 80 83 88 85 91 77 77 86 75 75 71 68 76 72 73 48 43 43 46 43 36 40 41
46 49 52 59 63 68 68 55 61 54 51 52 61 58 60 58 46 46 45 46 52 84 88 85 91 84 90 73 76 65 49 54 67 72 65 74 53 37 42 47 41 33 37 36 38
Wind_Speed
27 25 21 21 21 19 17 17 19 22 22 19 30 26 26 25 21 21 14 6 7 9 17 17 18 20 12 6 4 2 4 2 1 3 4 2 3 3 2 1 2 3 4 4 2
25 35 28 10 6 11 11 18 20 18 22 22 29 27 32 30 30 25 10 7 12 12 16 18 17 16 7 4 3 5 4 4 1 1 3 3 4 2 2 3 2 4 2 4 5
41 34 40 38 31 23 15 17 18 21 21 19 24 21 34 28 28 8 13 11 14 14 17 16 14 13 5 4 3 3 3 5 2 5 4 2 1 1 1 3 8 7 7 6 7
35 34 31 30 27 27 27 25 23 22 20 21 20 25 30 16 6 8 12 19 13 15 16 17 12 5 4 4 4 5 4 4 5 3 2 2 2 4 6 5 4 7 9 12 15
35 37 35 31 29 28 25 22 21 21 19 23 24 26 29 13 10 11 15 17 15 12 11 12 8 5 6 6 5 4 3 5 5 2 1 1 3 5 15 15 14 16 15 17 19
33 37 37 36 33 35 33 34 28 22 24 22 22 26 25 14 12 14 16 14 15 15 13 13 5 7 8 5 4 3 6 6 2 1 2 3 5 7 3 3 3 5 7 9 12
32 34 38 35 34 29 32 24 23 23 18 19 19 20 28 12 15 14 15 13 13 14 15 10 8 3 7 5 5 6 4 3 1 2 2 3 6 7 11 9 6 6 8 10 13
28 30 31 33 32 27 28 26 20 16 21 17 21 26 15 22 18 14 13 12 13 12 14 11 9 12 5 10 5 4 5 2 1 4 1 1 7 4 3 4 7 13 14 14 13
23 24 24 25 24 25 25 28 25 21 27 15 13 25 8 19 20 16 11 12 12 11 12 10 6 7 4 4 4 6 2 3 2 8 2 2 6 5 6 10 21 15 11 6 5
15 16 17 17 12 15 22 24 23 20 20 22 18 18 8 6 15 12 12 11 13 16 12 5 6 4 4 4 4 4 2 3 1 2 3 3 12 10 26 19 17 5 4 4 4
15 18 30 36 21 7 15 13 12 19 41 22 22 26 12 12 17 10 11 10 8 8 4 6 7 3 2 1 3 2 2 2 1 2 3 6 8 17 19 18 10 8 3 2 8
24 22 20 21 27 29 31 28 20 17 19 32 23 24 17 10 13 13 8 4 5 5 4 6 4 2 1 1 3 3 2 2 2 2 2 5 13 14 10 5 13 8 3 8 14
13 15 18 12 13 13 16 20 14 11 7 15 20 15 11 14 9 16 11 8 8 6 6 6 3 2 1 4 3 4 4 2 1 6 1 8 7 5 5 13 10 5 6 9 13
15 16 15 14 4 8 10 7 3 3 5 11 8 9 11 4 8 14 9 5 6 5 5 6 3 2 2 4 2 2 4 2 3 5 2 5 5 6 2 4 2 3 7 9 9
14 11 8 6 6 5 5 4 1 1 6 10 6 5 8 5 2 9 8 9 4 3 5 2 2 5 6 2 2 2 2 2 0 2 4 2 3 8 4 5 7 5 6 6 9
16 14 9 5 5 4 4 3 1 6 4 7 7 6 4 8 4 4 6 7 3 5 6 3 1 1 3 2 1 2 2 4 1 2 3 4 4 6 3 4 2 5 6 7 9
15 15 13 10 5 4 5 2 5 7 4 6 3 4 4 5 4 5 4 4 3 4 4 4 2 1 1 2 5 3 5 3 5 4 5 1 2 9 6 6 5 6 7 7 10
9 12 13 11 7 6 5 6 11 6 4 3 2 5 4 5 3 4 2 4 5 3 3 4 5 1 1 2 3 1 4 4 4 2 5 2 6 6 3 5 7 8 9 11 9
5 12 13 11 9 7 2 6 7 6 3 4 1 4 4 3 1 4 3 2 2 3 4 2 3 1 1 1 2 1 2 1 1 0 2 3 7 7 1 5 10 14 14 14 11
6 6 14 11 11 7 7 3 2 2 2 1 2 3 2 2 4 3 2 2 1 2 1 2 1 2 1 2 4 2 2 2 1 3 5 5 5 6 5 9 9 10 17 16 14
6 2 12 12 7 10 4 1 3 3 4 2 2 2 3 3 2 1 1 2 2 1 2 2 4 3 2 4 6 2 1 2 2 3 3 4 6 7 7 5 7 12 18 17 16
4 3 9 8 5 4 2 5 4 2 1 1 1 1 2 2 2 2 1 3 6 5 2 0 3 3 8 3 6 5 6 6 3 4 3 2 7 4 7 5 9 14 16 18 16
5 3 5 6 3 2 1 2 4 4 3 3 2 2 2 4 3 3 3 3 10 7 5 2 1 2 6 4 1 4 5 4 2 1 8 4 6 2 4 5 12 18 18 19 19
5 3 2 3 4 6 5 2 2 5 3 3 2 1 1 1 2 3 4 6 11 8 7 4 2 6 6 4 4 4 6 9 8 4 3 12 10 13 8 8 13 16 22 24 22
5 2 1 2 2 2 1 6 3 3 3 6 2 5 5 3 2 4 3 0 2 6 5 4 5 4 7 11 10 14 13 11 15 19 10 3 14 20 5 7 15 28 30 25 24
3 3 2 2 2 3 2 5 7 3 7 4 4 6 7 6 8 8 7 5 6 3 6 4 3 2 5 12 13 16 17 18 21 21 22 23 28 28 36 29 24 22 23 20 20
4 3 1 2 0 2 4 5 7 6 7 5 11 3 5 11 14 11 11 7 7 9 7 6 3 1 5 4 7 10 12 21 9 7 18 17 27 18 14 11 17 28 15 16 20
Wind_Direction
345 334 311 293 281 266 251 220 212 205 220 192 188 204 174 159 148 146 118 101 125 143 148 147 150 148 136 115 102 97 65 86 96 156 166 30 103 68 53 98 60 62 84 115 160
14 13 355 330 274 240 204 200 207 210 200 182 184 197 159 142 146 123 84 100 135 145 154 150 140 145 109 105 57 67 86 158 240 160 137 83 97 346 51 23 187 189 177 158 212
24 51 52 59 71 75 155 162 169 170 157 165 189 192 139 136 129 91 113 119 143 148 153 142 133 140 87 113 46 72 138 150 103 106 117 109 121 0 100 278 221 199 217 232 256
36 39 45 54 68 79 89 100 121 138 153 160 165 152 136 131 96 111 127 136 140 149 149 148 137 99 101 111 86 94 78 135 152 116 118 103 319 313 228 234 195 215 273 274 272
44 44 47 57 67 75 85 101 117 128 140 150 169 146 140 74 75 117 129 137 136 141 145 158 134 106 128 123 98 87 130 111 142 134 70 313 298 273 268 266 258 263 271 279 286
53 54 52 61 69 76 88 94 101 110 132 152 158 133 130 70 88 100 132 139 136 139 133 148 116 119 103 96 78 114 117 126 175 354 33 24 312 354 344 334 285 277 285 301 310
60 62 61 63 69 80 81 92 99 109 109 111 147 141 117 84 104 100 128 121 135 134 140 124 130 143 115 92 99 102 80 41 267 302 36 27 296 240 275 283 305 303 293 300 308
69 69 68 64 63 67 77 78 85 91 102 117 112 134 76 85 99 106 114 118 139 124 133 117 109 106 64 115 53 66 47 75 213 153 203 112 266 281 125 101 324 307 297 294 295
74 71 67 62 64 71 79 75 88 85 86 110 115 103 50 81 83 97 117 120 136 136 141 128 112 72 66 76 39 16 162 205 211 203 137 175 268 287 210 296 309 312 311 283 216
55 42 33 16 55 93 87 87 86 80 93 81 74 80 71 71 72 79 96 115 112 118 107 86 57 71 36 63 190 182 178 221 152 221 191 231 267 275 283 291 289 289 177 192 243
46 51 64 55 52 112 115 92 60 52 64 69 80 93 91 68 62 73 112 104 91 76 87 36 71 110 124 66 150 137 99 74 117 142 258 239 264 278 271 255 229 187 182 313 326
64 60 50 51 64 71 96 90 90 102 64 67 72 75 70 56 67 67 98 96 85 91 75 34 87 227 240 50 90 71 100 352 295 331 311 310 286 277 293 215 185 154 38 343 326
33 25 15 13 42 59 66 86 92 100 82 58 56 37 39 50 41 27 58 65 73 59 56 104 173 295 86 40 90 36 82 34 280 319 26 325 315 335 29 109 111 84 14 341 340
333 331 333 345 4 40 52 55 74 73 76 1 15 16 359 24 41 34 36 55 49 113 89 79 350 40 53 69 23 103 353 26 359 41 286 53 280 298 268 185 184 6 356 357 355
12 3 347 356 1 16 24 41 60 140 68 319 343 2 11 52 114 22 42 71 90 88 98 258 47 30 60 359 5 189 305 289 56 26 52 344 58 269 319 266 221 285 330 336 343
22 23 27 360 353 358 0 6 56 42 18 338 332 347 20 40 39 17 35 66 82 63 46 117 132 112 180 267 176 280 25 36 76 72 15 231 133 280 218 214 214 248 275 315 327
29 36 40 39 18 11 358 346 46 72 318 316 318 355 24 21 31 31 34 29 87 80 22 15 4 8 65 54 350 46 47 355 358 4 230 200 92 248 239 217 213 245 269 301 319
41 41 33 27 13 353 344 50 67 222 196 216 324 343 36 359 9 353 65 35 24 78 97 112 345 212 184 138 186 334 126 146 221 255 268 298 240 252 255 204 237 247 256 284 304
14 33 29 22 15 1 326 52 162 206 194 163 112 66 359 5 35 46 48 108 41 47 113 122 313 60 174 59 72 354 68 31 137 229 314 254 289 297 230 259 248 247 250 268 280
342 356 18 12 17 39 69 97 74 162 138 61 108 151 116 349 41 29 17 305 46 46 87 213 93 237 209 84 25 94 147 92 70 286 282 289 276 241 270 254 237 244 244 256 262
357 24 3 3 34 57 92 104 86 63 42 30 35 93 136 144 123 24 9 311 133 308 11 77 100 296 80 212 188 94 233 185 158 183 228 300 267 214 215 218 233 234 241 247 253
354 23 359 13 45 51 105 139 146 193 189 256 228 264 131 139 162 192 217 216 175 159 166 236 175 254 229 254 200 184 189 163 143 237 224 287 273 251 224 239 234 246 245 243 252
351 327 358 6 103 33 208 152 158 154 215 200 247 210 202 170 158 176 202 189 175 164 175 181 243 339 341 2 85 211 195 184 165 273 224 171 260 297 256 250 247 255 261 252 250
355 12 17 44 69 131 150 215 183 191 176 202 234 206 65 301 266 216 198 199 194 181 158 140 212 207 201 206 152 215 213 198 191 205 217 229 279 264 251 249 275 276 280 269 258
19 27 40 296 343 114 145 171 164 211 238 188 229 213 177 209 182 230 229 353 214 198 161 147 227 196 253 262 259 254 246 221 210 220 209 194 230 260 224 239 265 292 294 284 263
26 17 351 277 261 152 166 221 197 196 161 240 219 200 199 199 192 195 174 175 202 173 166 185 262 221 266 251 258 257 250 239 234 233 243 256 273 267 275 273 269 269 292 286 268
6 13 330 288 184 113 223 210 209 184 226 228 204 189 223 235 235 241 230 231 199 163 189 171 194 52 267 329 318 284 242 218 196 209 220 236 243 269 272 251 266 281 274 285 277